Location: Pelzer
(34.6421°N, 82.4557°W)
Time: 23:35:43
(UTC+00:00)

N. Korean satellite - Visible Passes

Search period start: 12 August 2022 00:00
Search period end: 22 August 2022 00:00
Orbit: 433 x 470 km, 97.3° (Epoch: 12 August)

Date Brightness Start Highest point End Pass type
(mag) Time Alt. Az. Time Alt. Az. Time Alt. Az.
14 Aug 9.5 09:51:22 10° NE 09:53:37 16° E 09:55:51 10° SE visible
16 Aug 8.4 10:14:14 10° NNE 10:17:28 33° E 10:20:39 10° SSE visible
17 Aug 9.8 09:41:34 10° ENE 09:42:45 11° E 09:43:55 10° ESE visible
19 Aug 9.0 10:03:36 10° NE 10:06:28 23° E 10:09:19 10° SSE visible
21 Aug 7.4 10:26:36 10° NNE 10:30:01 52° E 10:33:24 10° S visible
